Location: Street
(51.1247°N, 2.7429°W)
Time: 04:57:53
(UTC+00:00)

Explorer 7 - Visible Passes

Search period start: 27 November 2020 00:00
Search period end: 07 December 2020 00:00
Orbit: 484 x 678 km, 50.3° (Epoch: 26 November)

Date Brightness Start Highest point End Pass type
(mag) Time Alt. Az. Time Alt. Az. Time Alt. Az.
27 Nov 8.5 04:32:56 32° E 04:32:56 32° E 04:35:13 10° E visible
27 Nov 6.8 06:09:14 25° W 06:11:35 77° S 06:15:33 10° ESE visible
28 Nov 8.4 04:37:27 35° E 04:37:27 35° E 04:39:51 10° E visible
28 Nov 6.9 06:13:45 23° W 06:16:12 69° SSW 06:20:09 10° ESE visible
29 Nov 8.2 04:41:58 37° E 04:41:58 37° E 04:44:30 10° E visible
29 Nov 7.1 06:18:16 22° W 06:20:48 58° SSW 06:24:42 10° ESE visible
30 Nov 8.1 04:46:28 40° ESE 04:46:28 40° ESE 04:49:08 10° E visible
30 Nov 7.4 06:22:46 20° W 06:25:21 46° SSW 06:29:10 10° SE visible
01 Dec 8.0 04:50:59 42° ESE 04:50:59 42° ESE 04:53:45 10° ESE visible
01 Dec 7.8 06:27:17 18° W 06:29:52 35° SSW 06:33:30 10° SE visible
02 Dec 7.9 04:55:32 42° SE 04:55:32 42° SE 04:58:19 10° ESE visible
02 Dec 8.2 06:31:50 15° W 06:34:19 26° SW 06:37:38 10° SSE visible
03 Dec 8.0 05:00:06 38° SE 05:00:06 38° SE 05:02:50 10° ESE visible
03 Dec 8.6 06:36:24 13° WSW 06:38:42 19° SW 06:41:31 10° S visible
04 Dec 8.2 05:04:42 32° SSE 05:04:42 32° SSE 05:07:15 10° SE visible
04 Dec 9.0 06:41:07 10° WSW 06:43:01 13° SW 06:44:52 10° SSW visible
05 Dec 8.5 05:09:22 25° S 05:09:22 25° S 05:11:33 10° SE visible
06 Dec 8.9 05:14:06 18° S 05:14:06 18° S 05:15:37 10° SSE visible
